Time,TemperatureF,DewpointF,PressureIn,WindDirection,WindDirectionDegrees,WindSpeedMPH,WindSpeedGustMPH,Humidity,HourlyPrecipIn,Conditions,Clouds,dailyrainin,SoftwareType,DateUTC
2013-06-15 00:00:00,70.0,65.3,30.02,SW,233,0.0,0.0,85,0.00,RA,,0.00,WeatherDisplay:10.37,2013-06-15 04:00:00,
2013-06-15 00:05:00,69.8,65.8,30.02,SW,233,0.0,0.0,87,0.00,RA,,0.00,WeatherDisplay:10.37,2013-06-15 04:05:00,
2013-06-15 00:10:00,69.6,65.9,30.02,SW,233,0.0,0.0,88,0.00,CLR,,0.00,WeatherDisplay:10.37,2013-06-15 04:10:00,
2013-06-15 00:15:00,69.6,65.9,30.02,SW,233,0.0,0.0,88,0.00,CLR,,0.00,WeatherDisplay:10.37,2013-06-15 04:15:00,
2013-06-15 00:20:00,69.6,66.2,30.02,SW,233,0.0,0.0,89,0.00,CLR,,0.00,WeatherDisplay:10.37,2013-06-15 04:20:00,
2013-06-15 00:25:00,69.5,66.1,30.02,SW,233,0.0,0.0,89,0.00,CLR,,0.00,WeatherDisplay:10.37,2013-06-15 04:25:00,
2013-06-15 00:30:00,69.4,66.1,30.03,SW,233,0.0,0.0,89,0.00,CLR,,0.00,WeatherDisplay:10.37,2013-06-15 04:30:00,
2013-06-15 00:35:00,69.3,66.2,30.03,SW,233,0.0,0.0,90,0.00,CLR,,0.00,WeatherDisplay:10.37,2013-06-15 04:35:00,
2013-06-15 00:40:00,69.1,66.3,30.03,WSW,256,0.0,1.0,91,0.00,CLR,,0.00,WeatherDisplay:10.37,2013-06-15 04:40:00,
2013-06-15 00:45:00,69.1,66.7,30.03,West,278,0.0,1.0,92,0.00,CLR,,0.00,WeatherDisplay:10.37,2013-06-15 04:45:00,
2013-06-15 00:50:00,69.1,66.3,30.04,West,278,0.0,0.0,91,0.00,CLR,,0.00,WeatherDisplay:10.37,2013-06-15 04:50:00,
2013-06-15 00:55:00,68.9,66.2,30.04,West,278,0.0,0.0,91,0.00,CLR,,0.00,WeatherDisplay:10.37,2013-06-15 04:55:00,
2013-06-15 01:00:00,68.9,66.2,30.04,West,278,0.0,0.0,91,0.00,CLR,,0.00,WeatherDisplay:10.37,2013-06-15 05:00:00,
2013-06-15 01:10:00,68.8,66.7,30.05,West,278,0.0,0.0,93,0.00,CLR,,0.00,WeatherDisplay:10.37,2013-06-15 05:10:00,
2013-06-15 01:15:00,68.7,66.3,30.05,West,278,0.0,2.0,92,0.00,CLR,,0.00,WeatherDisplay:10.37,2013-06-15 05:15:00,
2013-06-15 01:20:00,68.7,66.3,30.05,West,278,0.0,0.0,92,0.00,CLR,,0.00,WeatherDisplay:10.37,2013-06-15 05:20:00,
2013-06-15 01:25:00,68.5,66.1,30.05,West,278,0.0,0.0,92,0.00,CLR,,0.00,WeatherDisplay:10.37,2013-06-15 05:25:00,
2013-06-15 01:30:00,68.4,66.3,30.05,West,278,0.0,0.0,93,0.00,CLR,,0.00,WeatherDisplay:10.37,2013-06-15 05:30:00,
2013-06-15 01:35:00,68.4,66.6,30.05,West,278,0.0,0.0,94,0.00,CLR,,0.00,WeatherDisplay:10.37,2013-06-15 05:35:00,
2013-06-15 01:40:00,68.2,66.7,30.05,West,278,0.0,0.0,95,0.00,CLR,,0.00,WeatherDisplay:10.37,2013-06-15 05:40:00,
2013-06-15 01:45:00,68.0,66.5,30.05,West,278,0.0,0.0,95,0.00,CLR,,0.00,WeatherDisplay:10.37,2013-06-15 05:45:00,
2013-06-15 01:50:00,67.6,66.2,30.05,West,278,0.0,0.0,95,0.00,CLR,,0.00,WeatherDisplay:10.37,2013-06-15 05:50:00,
2013-06-15 01:55:00,67.5,66.3,30.05,West,278,0.0,0.0,96,0.00,CLR,,0.00,WeatherDisplay:10.37,2013-06-15 05:55:00,
2013-06-15 02:00:00,67.5,66.3,30.05,West,278,0.0,0.0,96,0.00,CLR,,0.00,WeatherDisplay:10.37,2013-06-15 06:00:00,
2013-06-15 02:05:00,67.1,66.2,30.06,West,278,0.0,0.0,97,0.00,CLR,,0.00,WeatherDisplay:10.37,2013-06-15 06:05:00,
2013-06-15 02:10:00,67.1,66.2,30.05,West,278,0.0,2.0,97,0.00,CLR,,0.00,WeatherDisplay:10.37,2013-06-15 06:10:00,
2013-06-15 02:15:00,67.2,66.4,30.06,NNW,331,0.0,1.0,97,0.00,CLR,,0.00,WeatherDisplay:10.37,2013-06-15 06:15:00,
2013-06-15 02:20:00,67.3,66.4,30.06,North,357,0.0,2.0,97,0.00,CLR,,0.00,WeatherDisplay:10.37,2013-06-15 06:20:00,
2013-06-15 02:25:00,67.3,66.4,30.06,NNW,334,0.0,0.0,97,0.00,CLR,,0.00,WeatherDisplay:10.37,2013-06-15 06:25:00,
2013-06-15 02:30:00,67.3,66.1,30.06,NW,323,0.0,0.0,96,0.00,CLR,,0.00,WeatherDisplay:10.37,2013-06-15 06:30:00,
2013-06-15 02:35:00,67.3,66.1,30.06,NW,323,0.0,0.0,96,0.00,CLR,,0.00,WeatherDisplay:10.37,2013-06-15 06:35:00,
2013-06-15 02:40:00,67.1,66.2,30.06,NW,323,0.0,0.0,97,0.00,CLR,,0.00,WeatherDisplay:10.37,2013-06-15 06:40:00,
2013-06-15 02:45:00,66.9,66.0,30.06,NW,323,0.0,0.0,97,0.00,CLR,,0.00,WeatherDisplay:10.37,2013-06-15 06:45:00,
2013-06-15 02:50:00,66.7,65.9,30.06,NW,323,0.0,0.0,97,0.00,CLR,,0.00,WeatherDisplay:10.37,2013-06-15 06:50:00,
2013-06-15 02:55:00,66.7,65.9,30.05,NW,323,0.0,0.0,97,0.00,CLR,,0.00,WeatherDisplay:10.37,2013-06-15 06:55:00,
2013-06-15 03:00:00,66.6,66.0,30.06,NW,323,0.0,0.0,98,0.00,CLR,,0.00,WeatherDisplay:10.37,2013-06-15 07:00:00,
2013-06-15 03:05:00,66.4,65.5,30.06,NW,323,0.0,0.0,97,0.00,CLR,,0.00,WeatherDisplay:10.37,2013-06-15 07:05:00,
2013-06-15 03:10:00,66.2,65.6,30.05,NW,323,0.0,0.0,98,0.00,CLR,,0.00,WeatherDisplay:10.37,2013-06-15 07:10:00,
2013-06-15 03:15:00,66.0,65.4,30.05,NW,323,0.0,0.0,98,0.00,CLR,,0.00,WeatherDisplay:10.37,2013-06-15 07:15:00,
2013-06-15 03:20:00,66.0,65.4,30.05,NW,323,0.0,0.0,98,0.00,CLR,,0.00,WeatherDisplay:10.37,2013-06-15 07:20:00,
2013-06-15 03:25:00,65.8,65.6,30.05,NW,323,0.0,0.0,99,0.00,CLR,,0.00,WeatherDisplay:10.37,2013-06-15 07:25:00,
2013-06-15 03:35:00,65.8,65.6,30.05,NW,323,0.0,0.0,99,0.00,CLR,,0.00,WeatherDisplay:10.37,2013-06-15 07:35:00,
2013-06-15 03:40:00,65.7,65.4,30.05,NW,323,0.0,0.0,99,0.00,CLR,,0.00,WeatherDisplay:10.37,2013-06-15 07:40:00,
2013-06-15 03:45:00,65.7,65.4,30.05,NW,323,0.0,0.0,99,0.00,CLR,,0.00,WeatherDisplay:10.37,2013-06-15 07:45:00,
2013-06-15 03:50:00,65.5,65.2,30.05,NW,309,0.0,1.0,99,0.00,CLR,,0.00,WeatherDisplay:10.37,2013-06-15 07:50:00,
2013-06-15 03:55:00,65.3,65.0,30.05,WSW,253,0.0,1.0,99,0.00,CLR,,0.00,WeatherDisplay:10.37,2013-06-15 07:55:00,
2013-06-15 04:00:00,65.3,65.0,30.05,SW,233,0.0,0.0,99,0.00,CLR,,0.00,WeatherDisplay:10.37,2013-06-15 08:00:00,
2013-06-15 04:05:00,65.3,65.0,30.05,SW,233,0.0,0.0,99,0.00,CLR,,0.00,WeatherDisplay:10.37,2013-06-15 08:05:00,
2013-06-15 04:10:00,65.3,65.0,30.05,SW,233,0.0,0.0,99,0.00,CLR,,0.00,WeatherDisplay:10.37,2013-06-15 08:10:00,
2013-06-15 04:15:00,65.1,64.8,30.06,SW,233,0.0,0.0,99,0.00,CLR,,0.00,WeatherDisplay:10.37,2013-06-15 08:15:00,
2013-06-15 04:20:00,65.1,64.8,30.05,SW,233,0.0,0.0,99,0.00,CLR,,0.00,WeatherDisplay:10.37,2013-06-15 08:20:00,
2013-06-15 04:25:00,65.0,64.8,30.05,SW,233,0.0,0.0,99,0.00,CLR,,0.00,WeatherDisplay:10.37,2013-06-15 08:25:00,
2013-06-15 04:30:00,64.9,64.7,30.05,SW,233,0.0,0.0,99,0.00,CLR,,0.00,WeatherDisplay:10.37,2013-06-15 08:30:00,
2013-06-15 04:40:00,64.9,64.7,30.05,West,264,0.0,0.0,99,0.00,CLR,,0.00,WeatherDisplay:10.37,2013-06-15 08:40:00,
2013-06-15 04:45:00,64.8,64.5,30.05,West,262,0.0,0.0,99,0.00,CLR,,0.00,WeatherDisplay:10.37,2013-06-15 08:45:00,
2013-06-15 04:50:00,64.8,64.5,30.05,WSW,239,0.0,0.0,99,0.00,CLR,,0.00,WeatherDisplay:10.37,2013-06-15 08:50:00,
2013-06-15 04:55:00,64.6,64.3,30.05,SW,233,0.0,0.0,99,0.00,CLR,,0.00,WeatherDisplay:10.37,2013-06-15 08:55:00,
2013-06-15 05:00:00,64.4,64.1,30.05,SW,233,0.0,0.0,99,0.00,CLR,,0.00,WeatherDisplay:10.37,2013-06-15 09:00:00,
2013-06-15 05:05:00,64.3,64.1,30.05,SW,233,0.0,0.0,99,0.00,CLR,,0.00,WeatherDisplay:10.37,2013-06-15 09:05:00,
2013-06-15 05:10:00,64.1,63.8,30.05,SW,233,0.0,0.0,99,0.00,CLR,,0.00,WeatherDisplay:10.37,2013-06-15 09:10:00,
2013-06-15 05:15:00,63.9,63.6,30.05,SW,233,0.0,0.0,99,0.00,CLR,,0.00,WeatherDisplay:10.37,2013-06-15 09:15:00,
2013-06-15 05:20:00,63.7,63.4,30.05,SW,233,0.0,0.0,99,0.00,CLR,,0.00,WeatherDisplay:10.37,2013-06-15 09:20:00,
2013-06-15 05:25:00,63.5,63.2,30.05,SW,233,0.0,0.0,99,0.00,CLR,,0.00,WeatherDisplay:10.37,2013-06-15 09:25:00,
2013-06-15 05:30:00,63.5,63.2,30.05,SW,233,0.0,0.0,99,0.00,CLR,,0.00,WeatherDisplay:10.37,2013-06-15 09:30:00,
2013-06-15 05:35:00,63.3,63.0,30.05,SW,233,0.0,0.0,99,0.00,CLR,,0.00,WeatherDisplay:10.37,2013-06-15 09:35:00,
2013-06-15 05:40:00,63.3,63.0,30.06,SW,233,0.0,0.0,99,0.00,CLR,,0.00,WeatherDisplay:10.37,2013-06-15 09:40:00,
2013-06-15 05:45:00,63.1,62.9,30.06,SW,233,0.0,0.0,99,0.00,CLR,,0.00,WeatherDisplay:10.37,2013-06-15 09:45:00,
2013-06-15 05:50:00,63.1,62.9,30.06,SW,233,0.0,0.0,99,0.00,CLR,,0.00,WeatherDisplay:10.37,2013-06-15 09:50:00,
2013-06-15 05:55:00,62.8,62.6,30.06,SW,233,0.0,0.0,99,0.00,CLR,,0.00,WeatherDisplay:10.37,2013-06-15 09:55:00,
2013-06-15 06:00:00,62.8,62.5,30.06,SW,233,0.0,0.0,99,0.00,CLR,,0.00,WeatherDisplay:10.37,2013-06-15 10:00:00,
2013-06-15 06:05:00,62.8,62.5,30.06,SW,233,0.0,0.0,99,0.00,CLR,,0.00,WeatherDisplay:10.37,2013-06-15 10:05:00,
2013-06-15 06:10:00,62.6,62.3,30.06,SW,233,0.0,0.0,99,0.00,CLR,,0.00,WeatherDisplay:10.37,2013-06-15 10:10:00,
2013-06-15 06:15:00,62.3,62.0,30.06,SW,233,0.0,0.0,99,0.00,CLR,,0.00,WeatherDisplay:10.37,2013-06-15 10:15:00,
2013-06-15 06:20:00,62.2,62.0,30.06,SW,233,0.0,0.0,99,0.00,CLR,,0.00,WeatherDisplay:10.37,2013-06-15 10:20:00,
2013-06-15 06:25:00,62.1,61.8,30.07,SW,233,0.0,0.0,99,0.00,CLR,,0.00,WeatherDisplay:10.37,2013-06-15 10:25:00,
2013-06-15 06:30:00,62.2,61.9,30.07,SW,233,0.0,0.0,99,0.00,CLR,,0.00,WeatherDisplay:10.37,2013-06-15 10:30:00,
2013-06-15 06:35:00,62.1,61.8,30.07,SW,233,0.0,0.0,99,0.00,CLR,,0.00,WeatherDisplay:10.37,2013-06-15 10:35:00,
2013-06-15 06:40:00,62.1,61.8,30.07,SW,233,0.0,0.0,99,0.00,CLR,,0.00,WeatherDisplay:10.37,2013-06-15 10:40:00,
2013-06-15 06:45:00,62.2,62.0,30.08,SW,233,0.0,0.0,99,0.00,CLR,,0.00,WeatherDisplay:10.37,2013-06-15 10:45:00,
2013-06-15 06:50:00,62.2,62.0,30.08,SW,233,0.0,0.0,99,0.00,CLR,,0.00,WeatherDisplay:10.37,2013-06-15 10:50:00,
2013-06-15 06:55:00,62.4,62.1,30.08,SW,233,0.0,0.0,99,0.00,CLR,,0.00,WeatherDisplay:10.37,2013-06-15 10:55:00,
2013-06-15 07:00:00,62.4,62.1,30.08,SW,233,0.0,0.0,99,0.00,CLR,,0.00,WeatherDisplay:10.37,2013-06-15 11:00:00,
2013-06-15 07:05:00,62.6,62.3,30.08,SW,233,0.0,0.0,99,0.00,CLR,,0.00,WeatherDisplay:10.37,2013-06-15 11:05:00,
2013-06-15 07:10:00,62.8,62.5,30.09,SW,233,0.0,0.0,99,0.00,CLR,,0.00,WeatherDisplay:10.37,2013-06-15 11:10:00,
2013-06-15 07:15:00,63.1,62.9,30.08,SW,233,0.0,0.0,99,0.00,CLR,,0.00,WeatherDisplay:10.37,2013-06-15 11:15:00,
2013-06-15 07:20:00,63.4,63.1,30.09,SW,233,0.0,0.0,99,0.00,CLR,,0.00,WeatherDisplay:10.37,2013-06-15 11:20:00,
2013-06-15 07:25:00,63.8,63.6,30.09,SW,233,0.0,0.0,99,0.00,CLR,,0.00,WeatherDisplay:10.37,2013-06-15 11:25:00,
2013-06-15 07:30:00,64.2,63.9,30.10,SW,233,0.0,0.0,99,0.00,CLR,,0.00,WeatherDisplay:10.37,2013-06-15 11:30:00,
2013-06-15 07:35:00,64.8,64.5,30.09,SW,233,0.0,0.0,99,0.00,CLR,,0.00,WeatherDisplay:10.37,2013-06-15 11:35:00,
2013-06-15 07:40:00,65.7,65.4,30.10,SW,233,0.0,0.0,99,0.00,CLR,,0.00,WeatherDisplay:10.37,2013-06-15 11:40:00,
2013-06-15 07:45:00,67.1,66.8,30.10,SW,233,0.0,0.0,99,0.00,CLR,,0.00,WeatherDisplay:10.37,2013-06-15 11:45:00,
2013-06-15 07:50:00,68.7,68.4,30.10,SW,233,0.0,0.0,99,0.00,CLR,,0.00,WeatherDisplay:10.37,2013-06-15 11:50:00,
2013-06-15 07:55:00,70.8,70.5,30.10,SW,233,0.0,0.0,99,0.00,CLR,,0.00,WeatherDisplay:10.37,2013-06-15 11:55:00,
2013-06-15 08:00:00,72.9,72.6,30.11,SW,233,0.0,0.0,99,0.00,CLR,,0.00,WeatherDisplay:10.37,2013-06-15 12:00:00,
2013-06-15 08:05:00,74.6,74.3,30.10,SW,233,0.0,0.0,99,0.00,CLR,,0.00,WeatherDisplay:10.37,2013-06-15 12:05:00,
2013-06-15 08:10:00,76.5,76.2,30.10,SW,233,0.0,1.0,99,0.00,CLR,,0.00,WeatherDisplay:10.37,2013-06-15 12:10:00,
2013-06-15 08:15:00,77.7,76.8,30.11,SW,233,0.0,1.0,97,0.00,CLR,,0.00,WeatherDisplay:10.37,2013-06-15 12:15:00,
2013-06-15 08:20:00,79.0,76.8,30.11,SW,233,0.0,1.0,93,0.00,CLR,,0.00,WeatherDisplay:10.37,2013-06-15 12:20:00,
2013-06-15 08:25:00,79.9,75.7,30.11,NW,315,0.0,2.0,87,0.00,CLR,,0.00,WeatherDisplay:10.37,2013-06-15 12:25:00,
2013-06-15 08:30:00,80.1,75.1,30.11,North,8,0.0,0.0,85,0.00,CLR,,0.00,WeatherDisplay:10.37,2013-06-15 12:30:00,
2013-06-15 08:35:00,81.3,74.6,30.11,NNE,21,0.0,2.0,80,0.00,CLR,,0.00,WeatherDisplay:10.37,2013-06-15 12:35:00,
2013-06-15 08:40:00,81.7,73.8,30.12,ENE,72,0.0,2.0,77,0.00,CLR,,0.00,WeatherDisplay:10.37,2013-06-15 12:40:00,
2013-06-15 08:45:00,82.0,73.3,30.12,East,101,1.0,2.0,75,0.00,CLR,,0.00,WeatherDisplay:10.37,2013-06-15 12:45:00,
2013-06-15 08:50:00,82.0,71.3,30.12,ESE,116,0.0,2.0,70,0.00,CLR,,0.00,WeatherDisplay:10.37,2013-06-15 12:50:00,
2013-06-15 08:55:00,81.7,70.1,30.12,SE,133,1.0,4.0,68,0.00,CLR,,0.00,WeatherDisplay:10.37,2013-06-15 12:55:00,
2013-06-15 09:00:00,81.5,69.9,30.12,SSE,159,1.0,4.0,68,0.00,CLR,,0.00,WeatherDisplay:10.37,2013-06-15 13:00:00,
2013-06-15 09:05:00,81.5,69.9,30.13,SW,224,0.0,2.0,68,0.00,CLR,,0.00,WeatherDisplay:10.37,2013-06-15 13:05:00,
2013-06-15 09:10:00,82.4,69.9,30.13,SSW,200,0.0,3.0,66,0.00,CLR,,0.00,WeatherDisplay:10.37,2013-06-15 13:10:00,
2013-06-15 09:15:00,82.4,69.0,30.13,SSE,149,1.0,3.0,64,0.00,CLR,,0.00,WeatherDisplay:10.37,2013-06-15 13:15:00,
2013-06-15 09:20:00,82.4,68.1,30.14,SSE,151,0.0,3.0,62,0.00,CLR,,0.00,WeatherDisplay:10.37,2013-06-15 13:20:00,
2013-06-15 09:25:00,82.3,66.5,30.13,East,99,1.0,4.0,59,0.00,CLR,,0.00,WeatherDisplay:10.37,2013-06-15 13:25:00,
2013-06-15 09:30:00,82.2,66.5,30.13,ENE,61,0.0,3.0,59,0.00,CLR,,0.00,WeatherDisplay:10.37,2013-06-15 13:30:00,
2013-06-15 09:35:00,82.9,68.5,30.14,SW,233,0.0,2.0,62,0.00,CLR,,0.00,WeatherDisplay:10.37,2013-06-15 13:35:00,
2013-06-15 09:40:00,83.8,68.9,30.13,SSW,201,1.0,3.0,61,0.00,CLR,,0.00,WeatherDisplay:10.37,2013-06-15 13:40:00,
2013-06-15 09:45:00,83.8,67.5,30.14,WSW,247,0.0,2.0,58,0.00,CLR,,0.00,WeatherDisplay:10.37,2013-06-15 13:45:00,
2013-06-15 09:50:00,84.0,67.1,30.14,West,271,0.0,2.0,57,0.00,CLR,,0.00,WeatherDisplay:10.37,2013-06-15 13:50:00,
2013-06-15 09:55:00,84.2,66.8,30.13,South,177,0.0,2.0,56,0.00,CLR,,0.00,WeatherDisplay:10.37,2013-06-15 13:55:00,
2013-06-15 10:00:00,84.7,65.7,30.14,SSW,206,0.0,3.0,53,0.00,CLR,,0.00,WeatherDisplay:10.37,2013-06-15 14:00:00,
2013-06-15 10:05:00,84.7,64.0,30.13,East,87,0.0,4.0,50,0.00,CLR,,0.00,WeatherDisplay:10.37,2013-06-15 14:05:00,
2013-06-15 10:15:00,84.6,62.7,30.14,SE,146,0.0,4.0,48,0.00,CLR,,0.00,WeatherDisplay:10.37,2013-06-15 14:15:00,
2013-06-15 10:20:00,84.7,62.3,30.14,South,190,0.0,2.0,47,0.00,CLR,,0.00,WeatherDisplay:10.37,2013-06-15 14:20:00,
2013-06-15 10:25:00,85.3,62.8,30.14,SSW,207,0.0,2.0,47,0.00,CLR,,0.00,WeatherDisplay:10.37,2013-06-15 14:25:00,
2013-06-15 10:30:00,85.6,63.1,30.14,ESE,108,0.0,2.0,47,0.00,CLR,,0.00,WeatherDisplay:10.37,2013-06-15 14:30:00,
2013-06-15 10:35:00,86.0,61.5,30.14,ENE,78,0.0,2.0,44,0.00,CLR,,0.00,WeatherDisplay:10.37,2013-06-15 14:35:00,
2013-06-15 10:40:00,86.0,61.5,30.14,NE,53,0.0,2.0,44,0.00,CLR,,0.00,WeatherDisplay:10.37,2013-06-15 14:40:00,
2013-06-15 10:45:00,86.2,59.7,30.14,ENE,71,1.0,2.0,41,0.00,CLR,,0.00,WeatherDisplay:10.37,2013-06-15 14:45:00,
2013-06-15 10:50:00,86.2,59.7,30.14,SE,142,1.0,2.0,41,0.00,CLR,,0.00,WeatherDisplay:10.37,2013-06-15 14:50:00,
2013-06-15 10:55:00,85.6,59.2,30.14,South,169,0.0,6.0,41,0.00,CLR,,0.00,WeatherDisplay:10.37,2013-06-15 14:55:00,
2013-06-15 11:00:00,85.1,57.4,30.14,WSW,249,1.0,4.0,39,0.00,CLR,,0.00,WeatherDisplay:10.37,2013-06-15 15:00:00,
2013-06-15 11:05:00,85.3,58.9,30.14,NW,315,0.0,2.0,41,0.00,CLR,,0.00,WeatherDisplay:10.37,2013-06-15 15:05:00,
2013-06-15 11:10:00,85.6,59.2,30.14,NNW,331,1.0,3.0,41,0.00,CLR,,0.00,WeatherDisplay:10.37,2013-06-15 15:10:00,
2013-06-15 11:20:00,85.3,60.3,30.15,West,281,0.0,2.0,43,0.00,CLR,,0.00,WeatherDisplay:10.37,2013-06-15 15:20:00,
2013-06-15 11:25:00,85.8,60.7,30.14,WSW,250,1.0,5.0,43,0.00,CLR,,0.00,WeatherDisplay:10.37,2013-06-15 15:25:00,
2013-06-15 11:30:00,86.3,58.4,30.14,West,271,0.0,5.0,39,0.00,CLR,,0.00,WeatherDisplay:10.37,2013-06-15 15:30:00,
2013-06-15 11:35:00,86.4,57.0,30.15,NW,316,1.0,3.0,37,0.00,CLR,,0.00,WeatherDisplay:10.37,2013-06-15 15:35:00,
2013-06-15 11:40:00,86.2,57.6,30.14,NW,325,0.0,3.0,38,0.00,CLR,,0.00,WeatherDisplay:10.37,2013-06-15 15:40:00,
2013-06-15 11:45:00,86.2,57.6,30.14,NW,326,1.0,3.0,38,0.00,CLR,,0.00,WeatherDisplay:10.37,2013-06-15 15:45:00,
2013-06-15 11:50:00,86.2,57.6,30.14,NW,323,1.0,3.0,38,0.00,CLR,,0.00,WeatherDisplay:10.37,2013-06-15 15:50:00,
2013-06-15 11:55:00,86.7,58.8,30.15,SE,143,1.0,6.0,39,0.00,CLR,,0.00,WeatherDisplay:10.37,2013-06-15 15:55:00,
2013-06-15 12:00:00,86.7,58.1,30.14,SSE,166,0.0,6.0,38,0.00,CLR,,0.00,WeatherDisplay:10.37,2013-06-15 16:00:00,
2013-06-15 12:05:00,86.9,58.2,30.14,ESE,106,1.0,3.0,38,0.00,CLR,,0.00,WeatherDisplay:10.37,2013-06-15 16:05:00,
2013-06-15 12:10:00,87.4,60.8,30.14,SE,129,0.0,3.0,41,0.00,CLR,,0.00,WeatherDisplay:10.37,2013-06-15 16:10:00,
2013-06-15 12:15:00,87.6,59.6,30.14,WSW,257,0.0,1.0,39,0.00,CLR,,0.00,WeatherDisplay:10.37,2013-06-15 16:15:00,
2013-06-15 12:20:00,87.6,59.6,30.14,NW,311,0.0,1.0,39,0.00,CLR,,0.00,WeatherDisplay:10.37,2013-06-15 16:20:00,
2013-06-15 12:25:00,87.6,61.0,30.14,West,271,1.0,3.0,41,0.00,CLR,,0.00,WeatherDisplay:10.37,2013-06-15 16:25:00,
2013-06-15 12:30:00,87.4,60.2,30.14,South,184,1.0,4.0,40,0.00,CLR,,0.00,WeatherDisplay:10.37,2013-06-15 16:30:00,
2013-06-15 12:35:00,87.4,60.1,30.14,South,183,0.0,2.0,40,0.00,CLR,,0.00,WeatherDisplay:10.37,2013-06-15 16:35:00,
2013-06-15 12:40:00,86.7,58.8,30.14,WNW,293,0.0,2.0,39,0.00,CLR,,0.00,WeatherDisplay:10.37,2013-06-15 16:40:00,
2013-06-15 12:45:00,86.2,59.7,30.14,East,84,0.0,4.0,41,0.00,CLR,,0.00,WeatherDisplay:10.37,2013-06-15 16:45:00,
2013-06-15 12:50:00,86.2,59.7,30.14,SE,142,0.0,2.0,41,0.00,CLR,,0.00,WeatherDisplay:10.37,2013-06-15 16:50:00,
2013-06-15 12:55:00,86.2,59.7,30.14,SE,143,0.0,1.0,41,0.00,CLR,,0.00,WeatherDisplay:10.37,2013-06-15 16:55:00,
2013-06-15 13:00:00,85.5,58.4,30.14,SSE,164,0.0,2.0,40,0.00,CLR,,0.00,WeatherDisplay:10.37,2013-06-15 17:00:00,
2013-06-15 13:05:00,86.0,60.2,30.14,South,186,1.0,4.0,42,0.00,CLR,,0.00,WeatherDisplay:10.37,2013-06-15 17:05:00,
2013-06-15 13:10:00,86.4,59.9,30.13,South,188,0.0,3.0,41,0.00,CLR,,0.00,WeatherDisplay:10.37,2013-06-15 17:10:00,
2013-06-15 13:15:00,87.1,59.9,30.13,SSW,203,0.0,2.0,40,0.00,CLR,,0.00,WeatherDisplay:10.37,2013-06-15 17:15:00,
2013-06-15 13:20:00,87.3,60.0,30.13,WSW,253,0.0,2.0,40,0.00,CLR,,0.00,WeatherDisplay:10.37,2013-06-15 17:20:00,
2013-06-15 13:25:00,87.3,60.0,30.13,West,278,0.0,2.0,40,0.00,CLR,,0.00,WeatherDisplay:10.37,2013-06-15 17:25:00,
2013-06-15 13:30:00,86.9,58.2,30.12,West,262,1.0,4.0,38,0.00,CLR,,0.00,WeatherDisplay:10.37,2013-06-15 17:30:00,
2013-06-15 13:35:00,86.9,58.2,30.13,WSW,237,1.0,4.0,38,0.00,CLR,,0.00,WeatherDisplay:10.37,2013-06-15 17:35:00,
2013-06-15 13:40:00,86.9,58.2,30.13,SW,233,1.0,4.0,38,0.00,CLR,,0.00,WeatherDisplay:10.37,2013-06-15 17:40:00,
2013-06-15 13:45:00,86.1,58.3,30.13,SSW,212,1.0,6.0,39,0.00,CLR,,0.00,WeatherDisplay:10.37,2013-06-15 17:45:00,
2013-06-15 13:50:00,86.0,55.9,30.13,South,188,2.0,6.0,36,0.00,CLR,,0.00,WeatherDisplay:10.37,2013-06-15 17:50:00,
2013-06-15 14:00:00,96.2,68.7,30.13,East,95,1.0,4.0,41,0.00,RA,,0.01,WeatherDisplay:10.37,2013-06-15 18:00:00,
2013-06-15 14:05:00,86.4,56.3,30.12,East,87,1.0,4.0,36,0.00,,,0.01,WeatherDisplay:10.37,2013-06-15 18:05:00,
2013-06-15 14:10:00,86.6,56.4,30.13,SE,136,1.0,5.0,36,0.00,CLR,,0.01,WeatherDisplay:10.37,2013-06-15 18:10:00,
2013-06-15 14:15:00,87.0,54.4,30.13,SSE,160,1.0,6.0,33,0.00,CLR,,0.01,WeatherDisplay:10.37,2013-06-15 18:15:00,
2013-06-15 14:25:00,87.1,52.8,30.13,West,259,1.0,5.0,31,0.00,CLR,,0.01,WeatherDisplay:10.37,2013-06-15 18:25:00,
2013-06-15 14:30:00,87.4,53.1,30.13,SSE,149,2.0,6.0,31,0.00,CLR,,0.01,WeatherDisplay:10.37,2013-06-15 18:30:00,
2013-06-15 14:40:00,87.8,51.6,30.12,SSE,161,1.0,6.0,29,0.00,CLR,,0.01,WeatherDisplay:10.37,2013-06-15 18:40:00,
2013-06-15 14:45:00,87.6,48.5,30.12,South,182,2.0,7.0,26,0.00,CLR,,0.01,WeatherDisplay:10.37,2013-06-15 18:45:00,
2013-06-15 14:55:00,87.4,48.3,30.12,East,99,1.0,5.0,26,0.00,CLR,,0.01,WeatherDisplay:10.37,2013-06-15 18:55:00,
2013-06-15 15:00:00,87.6,46.4,30.12,ESE,122,1.0,5.0,24,0.00,CLR,,0.01,WeatherDisplay:10.37,2013-06-15 19:00:00,
2013-06-15 15:05:00,87.6,46.4,30.11,South,181,1.0,3.0,24,0.00,CLR,,0.01,WeatherDisplay:10.37,2013-06-15 19:05:00,
2013-06-15 15:10:00,88.0,48.8,30.11,South,181,0.0,6.0,26,0.00,CLR,,0.01,WeatherDisplay:10.37,2013-06-15 19:10:00,
2013-06-15 15:15:00,87.8,46.5,30.11,South,188,1.0,6.0,24,0.00,CLR,,0.01,WeatherDisplay:10.37,2013-06-15 19:15:00,
2013-06-15 15:20:00,87.8,46.5,30.12,SW,219,1.0,6.0,24,0.00,CLR,,0.01,WeatherDisplay:10.37,2013-06-15 19:20:00,
2013-06-15 15:25:00,87.8,46.5,30.11,SW,233,1.0,6.0,24,0.00,CLR,,0.01,WeatherDisplay:10.37,2013-06-15 19:25:00,
2013-06-15 15:30:00,87.4,45.0,30.12,SW,234,1.0,6.0,23,0.00,CLR,,0.01,WeatherDisplay:10.37,2013-06-15 19:30:00,
2013-06-15 15:35:00,87.3,47.1,30.12,West,262,1.0,2.0,25,0.00,CLR,,0.01,WeatherDisplay:10.37,2013-06-15 19:35:00,
2013-06-15 15:40:00,87.2,47.1,30.12,WSW,254,0.0,2.0,25,0.00,CLR,,0.01,WeatherDisplay:10.37,2013-06-15 19:40:00,
2013-06-15 15:45:00,87.1,45.9,30.12,SW,217,1.0,4.0,24,0.00,CLR,,0.01,WeatherDisplay:10.37,2013-06-15 19:45:00,
2013-06-15 15:50:00,87.1,43.6,30.12,SSW,199,0.0,3.0,22,0.00,CLR,,0.01,WeatherDisplay:10.37,2013-06-15 19:50:00,
2013-06-15 15:55:00,87.1,43.6,30.12,WSW,238,1.0,4.0,22,0.00,CLR,,0.01,WeatherDisplay:10.37,2013-06-15 19:55:00,
2013-06-15 16:00:00,86.9,45.8,30.12,SE,135,1.0,8.0,24,0.00,CLR,,0.01,WeatherDisplay:10.37,2013-06-15 20:00:00,
2013-06-15 16:05:00,86.9,46.8,30.12,SSE,166,0.0,3.0,25,0.00,CLR,,0.01,WeatherDisplay:10.37,2013-06-15 20:05:00,
2013-06-15 16:10:00,86.8,46.7,30.12,SW,225,0.0,4.0,25,0.00,CLR,,0.01,WeatherDisplay:10.37,2013-06-15 20:10:00,
2013-06-15 16:15:00,86.5,44.3,30.11,SSW,212,1.0,4.0,23,0.00,CLR,,0.01,WeatherDisplay:10.37,2013-06-15 20:15:00,
2013-06-15 16:20:00,86.5,44.3,30.11,SW,232,1.0,8.0,23,0.00,CLR,,0.01,WeatherDisplay:10.37,2013-06-15 20:20:00,
2013-06-15 16:25:00,86.7,45.6,30.11,South,176,0.0,4.0,24,0.00,CLR,,0.01,WeatherDisplay:10.37,2013-06-15 20:25:00,
2013-06-15 16:30:00,86.5,45.5,30.11,South,187,0.0,3.0,24,0.00,CLR,,0.01,WeatherDisplay:10.37,2013-06-15 20:30:00,
2013-06-15 16:35:00,86.0,46.1,30.11,WSW,237,1.0,5.0,25,0.00,CLR,,0.01,WeatherDisplay:10.37,2013-06-15 20:35:00,
2013-06-15 16:40:00,84.9,44.0,30.11,SW,214,1.0,5.0,24,0.00,CLR,,0.01,WeatherDisplay:10.37,2013-06-15 20:40:00,
2013-06-15 16:45:00,84.0,44.4,30.11,South,183,0.0,8.0,25,0.00,CLR,,0.01,WeatherDisplay:10.37,2013-06-15 20:45:00,
2013-06-15 16:50:00,83.3,45.8,30.11,South,182,2.0,8.0,27,0.00,CLR,,0.01,WeatherDisplay:10.37,2013-06-15 20:50:00,
2013-06-15 16:55:00,82.8,46.3,30.11,SSE,157,1.0,7.0,28,0.00,CLR,,0.01,WeatherDisplay:10.37,2013-06-15 20:55:00,
2013-06-15 17:00:00,82.4,46.0,30.11,SSE,158,3.0,7.0,28,0.00,CLR,,0.01,WeatherDisplay:10.37,2013-06-15 21:00:00,
2013-06-15 17:10:00,82.0,49.3,30.11,South,180,0.0,3.0,32,0.00,CLR,,0.01,WeatherDisplay:10.37,2013-06-15 21:10:00,
2013-06-15 17:15:00,81.9,47.4,30.11,SSW,196,0.0,5.0,30,0.00,CLR,,0.01,WeatherDisplay:10.37,2013-06-15 21:15:00,
2013-06-15 17:20:00,81.9,47.4,30.11,SW,231,0.0,1.0,30,0.00,CLR,,0.01,WeatherDisplay:10.37,2013-06-15 21:20:00,
2013-06-15 17:25:00,81.5,47.1,30.11,SW,228,0.0,4.0,30,0.00,CLR,,0.01,WeatherDisplay:10.37,2013-06-15 21:25:00,
2013-06-15 17:30:00,81.5,45.2,30.11,SSW,192,1.0,5.0,28,0.00,CLR,,0.01,WeatherDisplay:10.37,2013-06-15 21:30:00,
2013-06-15 17:35:00,81.5,45.2,30.11,ESE,104,0.0,4.0,28,0.00,CLR,,0.01,WeatherDisplay:10.37,2013-06-15 21:35:00,
2013-06-15 17:40:00,81.3,46.9,30.11,SE,127,1.0,4.0,30,0.00,CLR,,0.01,WeatherDisplay:10.37,2013-06-15 21:40:00,
2013-06-15 17:45:00,81.3,46.9,30.11,SSW,212,1.0,3.0,30,0.00,CLR,,0.01,WeatherDisplay:10.37,2013-06-15 21:45:00,
2013-06-15 17:50:00,81.1,46.8,30.11,SW,224,1.0,5.0,30,0.00,CLR,,0.01,WeatherDisplay:10.37,2013-06-15 21:50:00,
2013-06-15 17:55:00,81.1,44.9,30.11,SSW,196,1.0,3.0,28,0.00,CLR,,0.01,WeatherDisplay:10.37,2013-06-15 21:55:00,
2013-06-15 18:00:00,80.8,46.5,30.11,SSW,197,1.0,3.0,30,0.00,CLR,,0.01,WeatherDisplay:10.37,2013-06-15 22:00:00,
2013-06-15 18:05:00,80.8,47.3,30.11,SSE,162,0.0,3.0,31,0.00,CLR,,0.01,WeatherDisplay:10.37,2013-06-15 22:05:00,
2013-06-15 18:10:00,80.6,48.8,30.11,South,170,0.0,5.0,33,0.00,CLR,,0.01,WeatherDisplay:10.37,2013-06-15 22:10:00,
2013-06-15 18:15:00,80.4,49.5,30.11,WSW,258,1.0,3.0,34,0.00,CLR,,0.01,WeatherDisplay:10.37,2013-06-15 22:15:00,
2013-06-15 18:20:00,80.4,50.2,30.11,SE,125,0.0,3.0,35,0.00,CLR,,0.01,WeatherDisplay:10.37,2013-06-15 22:20:00,
2013-06-15 18:25:00,80.2,50.9,30.10,West,269,1.0,4.0,36,0.00,CLR,,0.01,WeatherDisplay:10.37,2013-06-15 22:25:00,
2013-06-15 18:30:00,80.0,52.1,30.11,SSW,212,1.0,6.0,38,0.00,CLR,,0.01,WeatherDisplay:10.37,2013-06-15 22:30:00,
2013-06-15 18:35:00,79.9,51.3,30.11,SSW,212,1.0,6.0,37,0.00,CLR,,0.01,WeatherDisplay:10.37,2013-06-15 22:35:00,
2013-06-15 18:40:00,79.9,52.0,30.11,SSE,168,1.0,5.0,38,0.00,CLR,,0.01,WeatherDisplay:10.37,2013-06-15 22:40:00,
2013-06-15 18:45:00,79.7,52.5,30.11,SE,130,0.0,2.0,39,0.00,CLR,,0.01,WeatherDisplay:10.37,2013-06-15 22:45:00,
2013-06-15 18:55:00,79.3,53.6,30.11,WNW,284,0.0,2.0,41,0.00,CLR,,0.01,WeatherDisplay:10.37,2013-06-15 22:55:00,
2013-06-15 19:00:00,79.2,53.4,30.11,SSW,212,0.0,4.0,41,0.00,CLR,,0.01,WeatherDisplay:10.37,2013-06-15 23:00:00,
2013-06-15 19:05:00,79.2,54.7,30.11,South,170,0.0,1.0,43,0.00,CLR,,0.01,WeatherDisplay:10.37,2013-06-15 23:05:00,
2013-06-15 19:10:00,79.0,53.9,30.11,SSE,151,1.0,3.0,42,0.00,CLR,,0.01,WeatherDisplay:10.37,2013-06-15 23:10:00,
2013-06-15 19:15:00,78.9,53.8,30.11,SW,236,0.0,3.0,42,0.00,CLR,,0.01,WeatherDisplay:10.37,2013-06-15 23:15:00,
2013-06-15 19:20:00,78.6,55.5,30.11,SW,224,0.0,2.0,45,0.00,CLR,,0.01,WeatherDisplay:10.37,2013-06-15 23:20:00,
2013-06-15 19:25:00,78.4,55.9,30.11,WSW,247,0.0,1.0,46,0.00,CLR,,0.01,WeatherDisplay:10.37,2013-06-15 23:25:00,
2013-06-15 19:30:00,78.1,57.4,30.11,West,259,0.0,4.0,49,0.00,CLR,,0.01,WeatherDisplay:10.37,2013-06-15 23:30:00,
2013-06-15 19:35:00,78.1,57.4,30.12,SE,124,0.0,2.0,49,0.00,CLR,,0.01,WeatherDisplay:10.37,2013-06-15 23:35:00,
2013-06-15 19:40:00,78.1,58.5,30.11,SE,142,0.0,6.0,51,0.00,CLR,,0.01,WeatherDisplay:10.37,2013-06-15 23:40:00,
2013-06-15 19:45:00,77.7,59.2,30.11,NNW,327,1.0,3.0,53,0.00,CLR,,0.01,WeatherDisplay:10.37,2013-06-15 23:45:00,
2013-06-15 19:50:00,77.5,59.6,30.12,NNE,14,1.0,3.0,54,0.00,CLR,,0.01,WeatherDisplay:10.37,2013-06-15 23:50:00,
2013-06-15 19:55:00,77.5,59.6,30.12,ESE,111,1.0,3.0,54,0.00,CLR,,0.01,WeatherDisplay:10.37,2013-06-15 23:55:00,
2013-06-15 20:00:00,77.2,60.8,30.11,South,169,0.0,4.0,57,0.00,CLR,,0.01,WeatherDisplay:10.37,2013-06-16 00:00:00,
2013-06-15 20:05:00,77.0,60.6,30.12,ESE,119,0.0,2.0,57,0.00,CLR,,0.01,WeatherDisplay:10.37,2013-06-16 00:05:00,
2013-06-15 20:10:00,76.6,60.8,30.11,ESE,123,0.0,2.0,58,0.00,CLR,,0.01,WeatherDisplay:10.37,2013-06-16 00:10:00,
2013-06-15 20:15:00,76.6,60.7,30.11,South,173,0.0,2.0,58,0.00,CLR,,0.01,WeatherDisplay:10.37,2013-06-16 00:15:00,
2013-06-15 20:20:00,76.3,61.4,30.11,South,188,0.0,0.0,60,0.00,CLR,,0.01,WeatherDisplay:10.37,2013-06-16 00:20:00,
2013-06-15 20:25:00,75.7,61.3,30.12,SSW,197,0.0,1.0,61,0.00,CLR,,0.01,WeatherDisplay:10.37,2013-06-16 00:25:00,
2013-06-15 20:30:00,75.6,61.6,30.11,South,169,0.0,1.0,62,0.00,CLR,,0.01,WeatherDisplay:10.37,2013-06-16 00:30:00,
2013-06-15 20:35:00,75.2,61.7,30.11,SE,143,0.0,0.0,63,0.00,CLR,,0.01,WeatherDisplay:10.37,2013-06-16 00:35:00,
2013-06-15 20:40:00,75.0,62.0,30.11,SSE,161,0.0,2.0,64,0.00,CLR,,0.01,WeatherDisplay:10.37,2013-06-16 00:40:00,
2013-06-15 20:45:00,74.5,61.9,30.11,South,184,0.0,1.0,65,0.00,CLR,,0.01,WeatherDisplay:10.37,2013-06-16 00:45:00,
2013-06-15 20:50:00,74.5,61.9,30.11,South,188,0.0,0.0,65,0.00,CLR,,0.01,WeatherDisplay:10.37,2013-06-16 00:50:00,
2013-06-15 20:55:00,73.9,62.3,30.12,South,188,0.0,0.0,67,0.00,CLR,,0.01,WeatherDisplay:10.37,2013-06-16 00:55:00,
2013-06-15 21:00:00,73.6,62.4,30.11,South,188,0.0,0.0,68,0.00,CLR,,0.01,WeatherDisplay:10.37,2013-06-16 01:00:00,
2013-06-15 21:05:00,73.4,62.2,30.12,South,188,0.0,0.0,68,0.00,CLR,,0.01,WeatherDisplay:10.37,2013-06-16 01:05:00,
2013-06-15 21:10:00,72.9,62.5,30.11,South,188,0.0,0.0,70,0.00,CLR,,0.01,WeatherDisplay:10.37,2013-06-16 01:10:00,
2013-06-15 21:15:00,72.9,62.5,30.11,South,188,0.0,0.0,70,0.00,CLR,,0.01,WeatherDisplay:10.37,2013-06-16 01:15:00,
2013-06-15 21:20:00,72.3,62.8,30.12,South,188,0.0,0.0,72,0.00,CLR,,0.01,WeatherDisplay:10.37,2013-06-16 01:20:00,
2013-06-15 21:25:00,72.3,62.8,30.11,South,188,0.0,0.0,72,0.00,CLR,,0.01,WeatherDisplay:10.37,2013-06-16 01:25:00,
2013-06-15 21:30:00,72.0,63.2,30.12,South,188,0.0,1.0,74,0.00,CLR,,0.01,WeatherDisplay:10.37,2013-06-16 01:30:00,
2013-06-15 21:35:00,72.0,63.2,30.11,South,188,0.0,1.0,74,0.00,CLR,,0.01,WeatherDisplay:10.37,2013-06-16 01:35:00,
2013-06-15 21:40:00,71.8,63.4,30.12,South,188,0.0,1.0,75,0.00,CLR,,0.01,WeatherDisplay:10.37,2013-06-16 01:40:00,
2013-06-15 21:45:00,71.8,63.4,30.12,South,188,0.0,0.0,75,0.00,CLR,,0.01,WeatherDisplay:10.37,2013-06-16 01:45:00,
2013-06-15 21:50:00,71.5,63.6,30.12,South,188,0.0,0.0,76,0.00,CLR,,0.01,WeatherDisplay:10.37,2013-06-16 01:50:00,
2013-06-15 21:55:00,71.4,63.8,30.12,South,188,0.0,0.0,77,0.00,CLR,,0.01,WeatherDisplay:10.37,2013-06-16 01:55:00,
2013-06-15 22:00:00,71.4,63.8,30.13,South,188,0.0,0.0,77,0.00,CLR,,0.01,WeatherDisplay:10.37,2013-06-16 02:00:00,
2013-06-15 22:05:00,71.4,63.8,30.13,South,188,0.0,0.0,77,0.00,CLR,,0.01,WeatherDisplay:10.37,2013-06-16 02:05:00,
2013-06-15 22:10:00,71.2,64.4,30.13,South,188,0.0,1.0,79,0.00,CLR,,0.01,WeatherDisplay:10.37,2013-06-16 02:10:00,
2013-06-15 22:15:00,71.2,64.4,30.13,South,188,0.0,1.0,79,0.00,CLR,,0.01,WeatherDisplay:10.37,2013-06-16 02:15:00,
2013-06-15 22:20:00,71.2,64.4,30.13,South,188,0.0,0.0,79,0.00,CLR,,0.01,WeatherDisplay:10.37,2013-06-16 02:20:00,
2013-06-15 22:25:00,71.2,64.8,30.13,South,175,0.0,1.0,80,0.00,CLR,,0.01,WeatherDisplay:10.37,2013-06-16 02:25:00,
2013-06-15 22:30:00,71.1,64.9,30.14,SSE,152,0.0,1.0,81,0.00,CLR,,0.01,WeatherDisplay:10.37,2013-06-16 02:30:00,
2013-06-15 22:35:00,70.9,65.1,30.14,SE,143,0.0,0.0,82,0.00,CLR,,0.01,WeatherDisplay:10.37,2013-06-16 02:35:00,
2013-06-15 22:40:00,70.8,65.0,30.14,SSE,149,0.0,1.0,82,0.00,CLR,,0.01,WeatherDisplay:10.37,2013-06-16 02:40:00,
2013-06-15 22:45:00,70.5,65.1,30.14,South,173,0.0,1.0,83,0.00,CLR,,0.01,WeatherDisplay:10.37,2013-06-16 02:45:00,
2013-06-15 22:50:00,70.5,65.1,30.14,South,190,0.0,0.0,83,0.00,CLR,,0.01,WeatherDisplay:10.37,2013-06-16 02:50:00,
2013-06-15 22:55:00,70.5,65.4,30.14,SW,216,0.0,0.0,84,0.00,CLR,,0.01,WeatherDisplay:10.37,2013-06-16 02:55:00,
2013-06-15 23:00:00,70.5,65.4,30.14,SW,233,0.0,0.0,84,0.00,CLR,,0.01,WeatherDisplay:10.37,2013-06-16 03:00:00,
2013-06-15 23:05:00,70.4,65.3,30.14,SW,233,0.0,0.0,84,0.00,CLR,,0.01,WeatherDisplay:10.37,2013-06-16 03:05:00,
2013-06-15 23:10:00,70.0,65.6,30.14,SW,233,0.0,0.0,86,0.00,CLR,,0.01,WeatherDisplay:10.37,2013-06-16 03:10:00,
2013-06-15 23:15:00,70.0,65.6,30.14,SW,233,0.0,0.0,86,0.00,CLR,,0.01,WeatherDisplay:10.37,2013-06-16 03:15:00,
2013-06-15 23:20:00,70.0,65.6,30.14,SW,233,0.0,0.0,86,0.00,CLR,,0.01,WeatherDisplay:10.37,2013-06-16 03:20:00,
2013-06-15 23:25:00,69.4,65.4,30.14,SW,233,0.0,0.0,87,0.00,CLR,,0.01,WeatherDisplay:10.37,2013-06-16 03:25:00,
2013-06-15 23:30:00,69.3,65.9,30.14,SW,233,0.0,0.0,89,0.00,CLR,,0.01,WeatherDisplay:10.37,2013-06-16 03:30:00,
2013-06-15 23:35:00,69.3,65.9,30.14,SW,233,0.0,0.0,89,0.00,CLR,,0.01,WeatherDisplay:10.37,2013-06-16 03:35:00,
2013-06-15 23:40:00,69.3,65.9,30.14,SW,233,0.0,0.0,89,0.00,CLR,,0.01,WeatherDisplay:10.37,2013-06-16 03:40:00,
2013-06-15 23:50:00,68.7,66.6,30.14,SW,233,0.0,0.0,93,0.00,CLR,,0.01,WeatherDisplay:10.37,2013-06-16 03:50:00,
2013-06-15 23:55:00,68.7,66.9,30.14,SW,233,0.0,0.0,94,0.00,CLR,,0.01,WeatherDisplay:10.37,2013-06-16 03:55:00,